(114566) = 2003 BW62

Discovered at Palomar on 2003-01-28 by NEAT.

Orbit

Orbit type: Main Belt

Note: WebGL enabled browser required.

epoch2023-09-13.0
epoch JD2460200.5
perihelion date2021-06-26.11605
perihelion JD2459391.61605
argument of perihelion (°)15.59508
ascending node (°)51.38361
inclination (°)6.94468
eccentricity0.1144955
perihelion distance (AU)2.1546562
Tisserand w.r.t. Jupiter3.5
ΔV w.r.t. Earth (km/sec)9.4
semimajor axis (AU)2.4332526
mean anomaly (°)210.04351
mean daily motion (°/day)0.25967080
aphelion distance (AU)2.712
period (years)3.8
P-vector [x]0.39261441
P-vector [y]0.83035408
P-vector [z]0.39543144
Q-vector [x]-0.91483813
Q-vector [y]0.30843140
Q-vector [z]0.26065546
absolute magnitude16.24
phase slope0.15
uncertainty0
referenceMPEC 2023-X132
observations used826
oppositions15
arc length (days)8430
first opposition used2000
last opposition used2023
residual rms (arc-secs)0.79
perturbers coarse indicatorM-v
perturbers precise indicator003Ek
first observation date used2000-04-26.0
last observation date used2023-05-26.0
computer nameMPCLINUX
JD of orbit computation2456760.776226
perihelion JD uncertainty (days)1.3015E-04
argument of perihelion uncertainty (°)5.9408E-05
ascending node uncertainty (°)4.4274E-05
inclination uncertainty (°)6.4635E-06
eccentricity uncertainty 6.2474E-08
perihelion distance uncertainty (AU)1.4884E-07
Minimum Orbit Intersection Distances (in AU)
for orbit epoch: 2460200.5, reference: E2023-XD2
Mercury1.84573
Venus1.43429
Earth1.16791
Mars0.60841
Jupiter2.56416
Saturn6.87988
Uranus15.9499
Neptune27.5872

Observations

846 total observations over interval: 2000 04 26.41257 – 2023 05 26.394546
These data are available for download (format description).

Date (UT) J2000 RA J2000 Dec Magn Location Ref
2000 04 26.41257 15 13 29.46 -16 40 32.6 20.4 V 691 – Steward Observatory, Kitt Peak-Spacewatch MPS 80165
2000 04 26.43423 15 13 28.19 -16 40 30.9 20.4 V 691 – Steward Observatory, Kitt Peak-Spacewatch MPS 80165
2000 04 26.45582 15 13 26.93 -16 40 29.3 20.7 V 691 – Steward Observatory, Kitt Peak-Spacewatch MPS 80165
2000 06 04.16542 14 37 27.88 -15 41 45.2 20.7 V 691 – Steward Observatory, Kitt Peak-Spacewatch MPS 80165
2000 06 04.18746 14 37 26.93 -15 41 44.4 20.7 V 691 – Steward Observatory, Kitt Peak-Spacewatch MPS 80165
2000 06 04.20970 14 37 26.03 -15 41 43.3 20.6 V 691 – Steward Observatory, Kitt Peak-Spacewatch MPS 80165
2001 08 19.29091 22 46 46.22 -20 22 26.5 19.6   704 – Lincoln Laboratory ETS, New Mexico MPS 141070
2001 08 19.30359 22 46 45.51 -20 22 31.9 19.3   704 – Lincoln Laboratory ETS, New Mexico MPS 141070
2001 08 19.31643 22 46 44.77 -20 22 35.8 19.5   704 – Lincoln Laboratory ETS, New Mexico MPS 141070
2002 12 31.37188 09 53 20.70 +23 55 46.4 19.3   704 – Lincoln Laboratory ETS, New Mexico MPS 81544
2002 12 31.38666 09 53 20.47 +23 55 51.1 19.7   704 – Lincoln Laboratory ETS, New Mexico MPS 81544
2002 12 31.40134 09 53 20.38 +23 55 56.8 19.8   704 – Lincoln Laboratory ETS, New Mexico MPS 81544
2002 12 31.41630 09 53 20.14 +23 56 01.6 19.6   704 – Lincoln Laboratory ETS, New Mexico MPS 81544
2002 12 31.43135 09 53 19.87 +23 56 07.0 20.1   704 – Lincoln Laboratory ETS, New Mexico MPS 81544
2003 01 10.41275 09 49 32.81 +24 58 34.5 20.1   704 – Lincoln Laboratory ETS, New Mexico MPS 81544
2003 01 10.43086 09 49 32.16 +24 58 43.9 20.0   704 – Lincoln Laboratory ETS, New Mexico MPS 81544
2003 01 10.44762 09 49 31.50 +24 58 50.0 20.0   704 – Lincoln Laboratory ETS, New Mexico MPS 81544
2003 01 10.45182 09 49 31.42 +24 58 53.4 19.4   704 – Lincoln Laboratory ETS, New Mexico MPS 81544
2003 01 10.47165 09 49 30.63 +24 59 00.6 19.3   704 – Lincoln Laboratory ETS, New Mexico MPS 81544
2003 01 10.48702 09 49 30.13 +24 59 07.5 19.3   704 – Lincoln Laboratory ETS, New Mexico MPS 81544
2003 01 10.50177 09 49 29.65 +24 59 12.8 19.4   704 – Lincoln Laboratory ETS, New Mexico MPS 81544
2003 01 28.36331 09 35 04.84 +26 58 45.1 18.9   644 – Palomar Mountain/NEAT MPS 71960
2003 01 28.39015 09 35 03.15 +26 58 55.5 19.7   644 – Palomar Mountain/NEAT MPS 71960
2003 01 28.41374 09 35 01.68 +26 59 03.7 18.9   644 – Palomar Mountain/NEAT MPS 71960
2003 01 31.34432 09 32 00.48 +27 16 35.1 18.6   704 – Lincoln Laboratory ETS, New Mexico MPS 71960
2003 01 31.36030 09 31 59.40 +27 16 40.4 19.3   704 – Lincoln Laboratory ETS, New Mexico MPS 71960
2003 01 31.37584 09 31 58.41 +27 16 45.9 19.4   704 – Lincoln Laboratory ETS, New Mexico MPS 71960
2003 01 31.39161 09 31 57.43 +27 16 51.8 19.1   704 – Lincoln Laboratory ETS, New Mexico MPS 71960
2003 02 06.30226 09 25 37.76 +27 48 02.1 19.3   644 – Palomar Mountain/NEAT MPS 73363
2003 02 06.32337 09 25 36.31 +27 48 08.4 19.1   644 – Palomar Mountain/NEAT MPS 73363
2003 02 06.34460 09 25 34.91 +27 48 14.7 19.5   644 – Palomar Mountain/NEAT MPS 73363
2003 02 07.22552 09 24 37.96 +27 52 19.8 19.0   644 – Palomar Mountain/NEAT MPS 73363
2003 02 07.24628 09 24 36.56 +27 52 25.4 19.0   644 – Palomar Mountain/NEAT MPS 73363
2003 02 07.27063 09 24 34.91 +27 52 32.1 19.0   644 – Palomar Mountain/NEAT MPS 73363
2003 02 08.23493 09 23 32.33 +27 56 50.1 18.9 R 699 – Lowell Observatory-LONEOS MPS 73363
2003 02 08.25701 09 23 30.87 +27 56 55.5   699 – Lowell Observatory-LONEOS MPS 73363
2003 02 08.27913 09 23 29.34 +27 57 01.7   699 – Lowell Observatory-LONEOS MPS 73363
2003 02 08.30129 09 23 27.86 +27 57 07.3   699 – Lowell Observatory-LONEOS MPS 73363
2003 02 19.26924 09 12 06.97 +28 31 32.5 19.4   644 – Palomar Mountain/NEAT MPS 74327
2003 02 19.28995 09 12 05.70 +28 31 34.0 19.0   644 – Palomar Mountain/NEAT MPS 74327
2003 02 19.31132 09 12 04.44 +28 31 37.2 19.6   644 – Palomar Mountain/NEAT MPS 74327
2003 02 26.28428 09 05 54.67 +28 39 03.8 19.6   704 – Lincoln Laboratory ETS, New Mexico MPS 74327
2003 02 26.29681 09 05 54.04 +28 39 03.4 19.8   704 – Lincoln Laboratory ETS, New Mexico MPS 74327
2003 02 26.30997 09 05 53.46 +28 39 03.8 19.6   704 – Lincoln Laboratory ETS, New Mexico MPS 74327
2003 02 26.32325 09 05 52.77 +28 39 04.5 19.3   704 – Lincoln Laboratory ETS, New Mexico MPS 74327
2003 03 03.14525 09 02 21.60 +28 37 45.4 19.4   644 – Palomar Mountain/NEAT MPS 74327
2003 03 03.15584 09 02 21.16 +28 37 44.8 19.3   644 – Palomar Mountain/NEAT MPS 74327
2003 03 03.16631 09 02 20.72 +28 37 44.5 19.4   644 – Palomar Mountain/NEAT MPS 74327
2003 03 07.31655 08 59 52.21 +28 32 41.5 20.1   644 – Palomar Mountain/NEAT MPS 74327
2003 03 07.32717 08 59 51.86 +28 32 40.2 20.2   644 – Palomar Mountain/NEAT MPS 74327
2003 03 07.33761 08 59 51.49 +28 32 39.0 19.9   644 – Palomar Mountain/NEAT MPS 74327
2003 03 10.13392 08 58 30.94 +28 27 17.8 19.8 R 699 – Lowell Observatory-LONEOS MPS 74327
2003 03 10.15143 08 58 30.35 +28 27 16.6   699 – Lowell Observatory-LONEOS MPS 74327
2003 03 10.16889 08 58 29.99 +28 27 14.3   699 – Lowell Observatory-LONEOS MPS 74327
2003 03 10.18631 08 58 29.48 +28 27 09.8   699 – Lowell Observatory-LONEOS MPS 74327
2005 08 27.39966 00 46 04.91 -05 31 17.5 19.0 R 699 – Lowell Observatory-LONEOS MPS 140189
2005 08 27.41804 00 46 04.48 -05 31 20.0   699 – Lowell Observatory-LONEOS MPS 140189
2005 08 27.43642 00 46 04.02 -05 31 25.0   699 – Lowell Observatory-LONEOS MPS 140189
2005 08 27.45483 00 46 03.43 -05 31 29.7   699 – Lowell Observatory-LONEOS MPS 140189
2005 08 31.37366 00 44 18.64 -05 46 25.3 19.5 R 644 – Palomar Mountain/NEAT MPS 141070
2005 08 31.39620 00 44 17.90 -05 46 30.9 19.8 R 644 – Palomar Mountain/NEAT MPS 141070
2005 08 31.41793 00 44 17.21 -05 46 36.1 19.6 R 644 – Palomar Mountain/NEAT MPS 141070
2005 09 03.29330 00 42 43.66 -05 58 22.8 18.8 V 703 – Catalina Sky Survey MPS 141070
2005 09 03.29973 00 42 43.48 -05 58 24.2 19.2 V 703 – Catalina Sky Survey MPS 141070
2005 09 03.30616 00 42 43.16 -05 58 25.5 19.5 V 703 – Catalina Sky Survey MPS 141070
2005 09 03.31257 00 42 42.87 -05 58 28.2 18.9 V 703 – Catalina Sky Survey MPS 141070
2005 09 24.31924 00 25 44.11 -07 29 07.3 19.0 V 703 – Catalina Sky Survey MPS 142637
2005 09 24.32673 00 25 43.64 -07 29 09.6 18.9 V 703 – Catalina Sky Survey MPS 142637
2005 09 24.33422 00 25 43.21 -07 29 10.8 18.7 V 703 – Catalina Sky Survey MPS 142637
2005 09 24.34173 00 25 42.70 -07 29 11.6 18.9 V 703 – Catalina Sky Survey MPS 142637
2005 09 24.35770 00 25 41.72 -07 29 14.5 18.5 R 699 – Lowell Observatory-LONEOS MPS 142637
2005 09 24.37224 00 25 40.92 -07 29 18.9   699 – Lowell Observatory-LONEOS MPS 142637
2005 09 24.38679 00 25 40.02 -07 29 22.2   699 – Lowell Observatory-LONEOS MPS 142637
2005 09 24.40136 00 25 39.11 -07 29 25.6   699 – Lowell Observatory-LONEOS MPS 142637
2005 09 28.24783 00 21 54.87 -07 43 27.9 18.7 R 644 – Palomar Mountain/NEAT MPS 142637
2005 09 28.26885 00 21 53.60 -07 43 32.2 18.6 R 644 – Palomar Mountain/NEAT MPS 142637
2005 09 28.29035 00 21 52.28 -07 43 36.9 18.5 R 644 – Palomar Mountain/NEAT MPS 142637
2005 09 29.25591 00 20 55.57 -07 46 50.9 19.0 R 644 – Palomar Mountain/NEAT MPS 142637
2005 09 29.27800 00 20 54.23 -07 46 55.1 19.0 R 644 – Palomar Mountain/NEAT MPS 142637
2005 09 29.29949 00 20 52.88 -07 46 59.8 18.7 R 644 – Palomar Mountain/NEAT MPS 142637
2005 09 30.26686 00 19 56.03 -07 50 05.6 18.5 R 699 – Lowell Observatory-LONEOS MPS 143893
2005 09 30.31651 00 19 52.97 -07 50 15.3   699 – Lowell Observatory-LONEOS MPS 143893
2005 09 30.34133 00 19 51.41 -07 50 20.2   699 – Lowell Observatory-LONEOS MPS 143893
2005 10 05.28642 00 15 03.60 -08 03 58.1 19.0 V 703 – Catalina Sky Survey MPS 143893
2005 10 05.29178 00 15 03.27 -08 03 59.3 18.5 V 703 – Catalina Sky Survey MPS 143893
2005 10 05.29718 00 15 02.91 -08 04 00.5 18.7 V 703 – Catalina Sky Survey MPS 143893
2005 10 05.30253 00 15 02.70 -08 03 59.7 18.4 V 703 – Catalina Sky Survey MPS 143893
2005 10 25.20925 23 59 14.10 -08 11 27.3 18.7 V G96 – Mt. Lemmon Survey MPS 150562
2005 10 25.21633 23 59 13.81 -08 11 26.6 18.7 V G96 – Mt. Lemmon Survey MPS 150562
2005 10 25.22340 23 59 13.56 -08 11 26.1 18.6 V G96 – Mt. Lemmon Survey MPS 150562
